Tracking 19651 objects as of 22-Apr-2019
HD Live streaming from Space Station
objects crossing your sky now

SHARC

Track SHARC now!
10-day predictions


NORAD ID: 42712
Int'l Code: 1998-067LT
Perigee: 256.8 km
Apogee: 272.1 km
Inclination: 51.6 °
Period: 89.7 minutes
Semi major axis: 6635 km
RCS: Unknown
Launch date: November 20, 1998
Source: United States (US)
Launch site: TYURATAM MISSILE AND SPACE COMPLEX (TTMTR)
aabbcc
Your satellite tracking list
Your tracking list is empty




NASA's NSSDC Master Catalog

Two Line Element Set (TLE):
1 42712U 98067LT  19112.54734200  .00439007  10198-3  57471-3 0  9997
2 42712  51.6236 212.9066 0011504 339.2963  20.7582 16.06200609110469
Source of the keplerian elements: AFSPC